Location: Mactaquac Provincial Park
(45.9573°N, 66.8897°W)
Time: 08:59:46
(UTC-03:00)

CENTAUR R/B - Visible Passes

Search period start: 25 July 2016 00:00
Search period end: 04 August 2016 00:00
Orbit: 851 x 1337 km, 63.5° (Epoch: 22 July)

Date Brightness Start Highest point End Pass type
(mag) Time Alt. Az. Time Alt. Az. Time Alt. Az.
25 Jul 4.7 22:43:09 10° WNW 22:49:24 26° WSW 22:55:53 10° SSW visible
26 Jul 4.2 21:54:19 10° NW 22:01:32 41° WSW 22:09:05 10° S visible
27 Jul 5.3 22:59:21 10° WNW 23:02:58 14° WSW 23:06:39 10° SW visible
28 Jul 4.9 22:09:23 10° WNW 22:15:18 23° WSW 22:21:25 10° SSW visible
29 Jul 4.4 21:20:26 10° NW 21:27:28 37° WSW 21:34:49 10° S visible
30 Jul 5.5 22:26:15 10° W 22:28:49 12° WSW 22:31:24 10° WSW visible
31 Jul 5.2 21:35:40 10° WNW 21:41:11 21° WSW 21:46:53 10° SSW visible
